[Iaude] MPEC A199: 2017 VV14 [a=2.24,e=0.85,i=15.9,H=18.4,PHA]

mpec at mpcdb1.cfa.harvard.edu mpec at mpcdb1.cfa.harvard.edu
Sat Jan 12 18:39:16 EST 2019


M.P.E.C. 2019-A199                               Issued 2019 Jan. 12, 23:36 UT
 
     The Minor Planet Electronic Circulars contain information on unusual
         minor planets and routine data on comets.  They are published
    on behalf of Division F of the International Astronomical Union by the
          Minor Planet Center, Smithsonian Astrophysical Observatory,
                          Cambridge, MA 02138, U.S.A.

             Prepared using the Tamkin Foundation Computer Network

                              MPC at CFA.HARVARD.EDU
            URL https://www.minorplanetcenter.net/    ISSN 1523-6714


                                   2017 VV14
 
                           Revision to MPEC 2017-W27
 
Additional Observations:
     K17V14V KC2017 01 31.51297512 01 09.366+24 13 09.24         20.1 GLEA199F51
     K17V14V  C2017 02 04.46220811 58 41.438+25 05 17.45         22.3 GLEA199F51
     K17V14V  C2017 02 04.47513011 58 40.893+25 05 27.85         22.8 GLEA199F51
     K17V14V  C2017 02 04.48810711 58 40.312+25 05 38.65         23.5 GLEA199F51
     K17V14V  C2017 02 04.50103211 58 39.721+25 05 49.30         22.7 GLEA199F51
     K17V14V  C2017 02 17.57356211 46 06.191+28 15 15.24         21.7 GLEA199F51
     K17V14V  C2017 02 17.59681611 46 04.419+28 15 35.91         22.0 GLEA199F51
     K17V14V  C2017 02 17.60844911 46 03.574+28 15 46.33         21.7 GLEA199F51
     K17V14V  C2017 03 23.29904410 46 35.950+35 13 33.72         21.6 GLEA199F51
     K17V14V  C2017 03 23.31110310 46 34.458+35 13 38.92         21.4 GLEA199F51
     K17V14V  C2017 03 23.32315910 46 33.008+35 13 43.31         21.9 GLEA199F51
     K17V14V  C2017 03 23.33522410 46 31.506+35 13 48.64         21.4 GLEA199F51
 
Observer details:
F51 Pan-STARRS 1, Haleakala.  Observers J. Bulger, K. Chambers, T. Lowe,
    E. Magnier, A. Schultz, M. Willman.  Measurers S. Chastel, M. Huber,
    Y. Ramanjooloo, R. Wainscoat, R. Weryk.  1.8-m Ritchey-Chretien + CCD.
 
First and last observations above in comparison with prediction:
Residuals in seconds of arc, reference and Delta-T
170131 F51 13.1- 15.9+    170323 F51 18.0- 14.7+    MPO441101   +0.015 day
 
Orbital elements:
2017 VV14                                           PHA, Earth MOID = 0.0496 AU
Epoch 2019 Apr. 27.0 TT = JDT 2458600.5                 MPC
M 180.07132              (2000.0)            P               Q
n   0.29414274     Peri.  234.64014     +0.64720979     +0.71360596
a   2.2392227      Node    78.02864     -0.57975635     +0.68914076
e   0.8451849      Incl.   15.90698     -0.49497682     +0.12590293
P   3.35           H   18.4           G   0.15           U   3
Residuals in seconds of arc
170131 F51  0.5+  0.3+    171115 I52  0.2+  0.1+    171125 691  0.1+  0.4+
170204 F51  0.1-  0.0     171115 H01  0.2+  0.1-    171127 691  0.1-  0.4+
170204 F51  0.1+  0.2-    171116 204  0.3+  0.3-    171127 691  0.6-  0.4+
170204 F51  0.1-  0.0     171116 204  0.1+  0.1+    171127 691  0.0   0.1-
170204 F51  0.4-  0.0     171116 204  0.4+  0.1+    171127 V06  0.4+  0.0
170217 F51  0.1+  0.1+    171116 I52  0.6-  1.0-    171127 V06  0.1+  0.1-
170217 F51  0.1-  0.1-    171116 I52  0.5-  0.3+    171127 V06  0.0   0.3-
170217 F51  0.4+  0.2-    171116 I52  1.0-  0.5-    171127 V06  0.4+  0.0
170323 F51  0.3-  0.1+    171116 926  0.2-  0.1+    171128 G96  0.7+  0.7-
170323 F51  0.3-  0.3+    171116 926  0.2+  0.0     171128 G96  0.1-  0.0
170323 F51  0.2+  0.3-    171116 926  0.1+  0.2+    171128 G96  0.3+  0.0
170323 F51  0.1+  0.1+    171117 J04  0.2+  0.1-    171209 G96  0.2+  0.1-
171114 G96  0.3-  0.1-    171117 J04  0.1+  0.0     171209 G96  1.0-  0.8+
171114 G96  0.2-  0.0     171117 J04  0.2+  0.0     171209 G96  0.6+  0.0
171114 G96  0.2+  0.1-    171117 H01  0.2+  0.1-    171209 G96  0.5-  0.1+
171114 G96  0.5+  0.5+    171117 H01  0.1+  0.1-    171212 691  0.3+  0.3+
171114 I52  0.0   0.3+    171117 I52  0.1-  0.7-    171212 691  0.2-  0.0
171114 I52  0.2+  0.8+    171117 I52  0.7-  0.4-    171212 691  0.0   0.0
171114 I52  0.2+  0.6-    171117 I52  0.1-  0.2-    171229 G96  0.2-  0.4-
171114 I52  0.4+  0.1-    171117 I52  0.2+  0.4-    171229 G96  0.4+  0.1-
171115 J04  0.0   0.0     171120 I52  0.1-  0.3+    171229 G96  0.2+  0.1+
171115 J04  0.0   0.2+    171120 I52  0.2+  0.0     171229 G96  0.7+  0.8-
171115 J04  0.2+  0.4-    171120 I52  0.4-  0.3+    180112 I52  0.2+  0.5-
171115 H01  0.1+  0.0     171124 691  0.4+  0.5+    180112 I52  0.4-  0.7-
171115 H01  0.1+  0.1-    171124 691  0.2-  0.2-    180112 I52  0.5-  0.1-
171115 I52  0.5+  0.1+    171124 691  0.4+  0.4+    180112 I52  0.0   0.9-
171115 I52  0.2+  0.1-    171125 691  0.7-  0.1+
171115 H01  0.2+  0.0     171125 691  0.2-  0.2+

Ephemeris:
2017 VV14                a,e,i = 2.24, 0.85, 16                  q = 0.3467
Date    TT    R. A. (2000) Decl.     Delta      r     Elong.  Phase     V
2018 12 13    09 38 20.1 +28 54 02   3.3848  3.9974   122.2    12.0    24.8
...
2018 12 28    09 29 53.1 +30 32 13   3.2352  4.0259   138.6     9.3    24.6
...
2019 01 05    09 23 20.8 +31 27 50   3.1770  4.0397   147.3     7.6    24.5
...
2019 01 11    09 17 37.1 +32 08 59   3.1454  4.0493   153.5     6.2    24.4
2019 01 12    09 16 36.2 +32 15 42   3.1412  4.0509   154.5     6.0    24.4
2019 01 13    09 15 34.3 +32 22 21   3.1373  4.0524   155.4     5.8    24.4
...
2019 01 19    09 09 05.6 +33 00 45   3.1207  4.0614   160.5     4.6    24.3
...
2019 01 27    08 59 52.4 +33 46 28   3.1172  4.0725   163.9     3.8    24.3
...
2019 02 11    08 42 10.9 +34 48 43   3.1688  4.0907   156.1     5.6    24.4

A. U. Tomatic                (C) Copyright 2019 MPC           M.P.E.C. 2019-A199



More information about the Iaude mailing list